• In Russia
  • List of Countries
  • For 7 days
  • Water Temperature
  • Satellite Maps
  • Weather Map
  • Weather Widgets
  • user-avatar
    Login

    Hourly Weather Sankt Polten

    Today, 23 September, Sunday

    Time Temperature Precipitation Wind Pressure Humidity
    00:00 +13°C° 0.1 mm 1 mps 739 mmHg 72%
    01:00 +13°C° 0.1 mm 1 mps 739 mmHg 73%
    02:00 +13°C° 0.4 mm 1 mps 739 mmHg 77%
    03:00 +13°C° 0.4 mm 1 mps 739 mmHg 81%
    04:00 +13°C° 0.4 mm 1 mps 739 mmHg 85%
    05:00 +13°C° 0.2 mm 1 mps 739 mmHg 86%
    06:00 +13°C° 0.2 mm 1 mps 738 mmHg 87%
    07:00 +13°C° 0.2 mm 1 mps 738 mmHg 88%
    08:00 +13°C° 0.4 mm 1 mps 738 mmHg 88%
    09:00 +14°C° 0.4 mm 1 mps 738 mmHg 89%
    10:00 +14°C° 0.4 mm 2 mps 738 mmHg 89%
    11:00 +15°C° 0.4 mm 2 mps 737 mmHg 88%
    12:00 +15°C° 0.4 mm 2 mps 736 mmHg 87%
    13:00 +16°C° 0.4 mm 2 mps 736 mmHg 87%
    14:00 +18°C° 0 mm 2 mps 735 mmHg 82%
    15:00 +20°C° 0 mm 2 mps 734 mmHg 77%
    16:00 +23°C° 0 mm 2 mps 734 mmHg 72%
    17:00 +20°C° 0.1 mm 2 mps 733 mmHg 78%
    18:00 +19°C° 0.1 mm 2 mps 732 mmHg 84%
    19:00 +18°C° 0.1 mm 2 mps 731 mmHg 89%
    20:00 +18°C° 0.5 mm 2 mps 731 mmHg 90%
    21:00 +18°C° 0.5 mm 2 mps 731 mmHg 91%
    22:00 +18°C° 0.5 mm 2 mps 730 mmHg 92%
    23:00 +18°C° 1.2 mm 3 mps 731 mmHg 91%

    Tomorrow, 24 September, Monday

    Time Temperature Precipitation Wind Pressure Humidity
    00:00 +17°C° 1.2 mm 4 mps 731 mmHg 91%
    01:00 +16°C° 1.2 mm 5 mps 731 mmHg 91%
    02:00 +14°C° 1.1 mm 6 mps 733 mmHg 90%
    03:00 +12°C° 1.1 mm 7 mps 735 mmHg 89%
    04:00 +10°C° 1.1 mm 8 mps 737 mmHg 88%
    05:00 +9°C° 0.1 mm 8 mps 738 mmHg 87%
    06:00 +9°C° 0.1 mm 7 mps 739 mmHg 87%
    07:00 +8°C° 0.1 mm 6 mps 740 mmHg 86%
    08:00 +9°C° 0.1 mm 7 mps 740 mmHg 81%
    09:00 +9°C° 0.1 mm 7 mps 741 mmHg 76%
    10:00 +10°C° 0.1 mm 7 mps 742 mmHg 71%
    11:00 +11°C° 0.1 mm 7 mps 742 mmHg 65%
    12:00 +11°C° 0.1 mm 7 mps 743 mmHg 59%
    13:00 +12°C° 0.1 mm 7 mps 743 mmHg 53%
    14:00 +12°C° 0.1 mm 7 mps 743 mmHg 53%
    15:00 +13°C° 0.1 mm 6 mps 743 mmHg 53%
    16:00 +11°C° 0.1 mm 6 mps 744 mmHg 53%
    17:00 +10°C° 0 mm 5 mps 744 mmHg 59%
    18:00 +10°C° 0 mm 4 mps 745 mmHg 65%
    19:00 +9°C° 0 mm 3 mps 745 mmHg 70%
    20:00 +8°C° 0 mm 3 mps 746 mmHg 73%
    21:00 +8°C° 0 mm 3 mps 746 mmHg 76%
    22:00 +7°C° 0 mm 3 mps 747 mmHg 79%
    23:00 +7°C° 0 mm 3 mps 747 mmHg 81%

    Day after tomorrow, 25 September, Tuesday

    Time Temperature Precipitation Wind Pressure Humidity
    00:00 +7°C° 0 mm 3 mps 747 mmHg 82%
    01:00 +5°C° 0 mm 3 mps 747 mmHg 84%
    02:00 +5°C° 0 mm 3 mps 748 mmHg 85%
    03:00 +5°C° 0 mm 3 mps 748 mmHg 86%
    04:00 +4°C° 0 mm 3 mps 748 mmHg 87%
    05:00 +4°C° 0 mm 3 mps 749 mmHg 86%
    06:00 +5°C° 0 mm 3 mps 749 mmHg 85%
    07:00 +5°C° 0 mm 3 mps 749 mmHg 83%
    08:00 +7°C° 0 mm 3 mps 750 mmHg 73%
    09:00 +9°C° 0 mm 3 mps 750 mmHg 64%
    10:00 +10°C° 0 mm 3 mps 750 mmHg 54%
    11:00 +11°C° 0 mm 3 mps 750 mmHg 50%
    12:00 +12°C° 0 mm 3 mps 750 mmHg 46%
    13:00 +13°C° 0 mm 3 mps 750 mmHg 42%
    14:00 +12°C° 0 mm 3 mps 750 mmHg 43%
    15:00 +13°C° 0 mm 2 mps 750 mmHg 45%
    16:00 +13°C° 0 mm 2 mps 749 mmHg 46%
    17:00 +10°C° 0 mm 2 mps 750 mmHg 53%
    18:00 +9°C° 0 mm 1 mps 750 mmHg 60%
    19:00 +7°C° 0 mm 1 mps 751 mmHg 68%
    20:00 +7°C° 0 mm 1 mps 751 mmHg 70%
    21:00 +6°C° 0 mm 1 mps 751 mmHg 71%
    22:00 +6°C° 0 mm 1 mps 752 mmHg 73%
    23:00 +6°C° 0 mm 1 mps 751 mmHg 74%

    26 September, Wednesday

    Time Temperature Precipitation Wind Pressure Humidity
    00:00 +5°C° 0 mm 1 mps 751 mmHg 76%
    01:00 +5°C° 0 mm 1 mps 751 mmHg 77%
    02:00 +5°C° 0 mm 1 mps 751 mmHg 77%
    03:00 +5°C° 0 mm 1 mps 751 mmHg 78%
    04:00 +4°C° 0 mm 1 mps 751 mmHg 79%
    05:00 +5°C° 0 mm 1 mps 751 mmHg 77%
    06:00 +6°C° 0 mm 1 mps 751 mmHg 75%
    07:00 +6°C° 0 mm 1 mps 751 mmHg 73%
    08:00 +8°C° 0 mm 2 mps 750 mmHg 64%
    09:00 +10°C° 0 mm 2 mps 750 mmHg 54%
    10:00 +14°C° 0 mm 2 mps 750 mmHg 45%
    11:00 +16°C° 0 mm 2 mps 750 mmHg 42%
    12:00 +17°C° 0 mm 2 mps 749 mmHg 39%
    13:00 +19°C° 0 mm 2 mps 749 mmHg 36%
    14:00 +19°C° 0 mm 2 mps 748 mmHg 39%
    15:00 +18°C° 0 mm 2 mps 748 mmHg 42%
    16:00 +19°C° 0 mm 1 mps 747 mmHg 44%
    17:00 +16°C° 0 mm 1 mps 747 mmHg 51%
    18:00 +13°C° 0 mm 1 mps 747 mmHg 57%
    19:00 +11°C° 0 mm 1 mps 747 mmHg 64%
    20:00 +11°C° 0 mm 1 mps 748 mmHg 64%
    21:00 +10°C° 0 mm 1 mps 748 mmHg 63%
    22:00 +10°C° 0 mm 1 mps 748 mmHg 63%
    23:00 +10°C° 0 mm 1 mps 747 mmHg 63%

    27 September, Thursday

    Time Temperature Precipitation Wind Pressure Humidity
    00:00 +10°C° 0 mm 1 mps 747 mmHg 63%
    01:00 +10°C° 0 mm 1 mps 747 mmHg 63%
    02:00 +10°C° 0 mm 1 mps 747 mmHg 63%
    03:00 +10°C° 0 mm 1 mps 747 mmHg 62%
    04:00 +9°C° 0 mm 1 mps 747 mmHg 62%
    05:00 +10°C° 0 mm 1 mps 747 mmHg 62%
    06:00 +10°C° 0 mm 1 mps 747 mmHg 63%
    07:00 +11°C° 0 mm 1 mps 747 mmHg 63%
    08:00 +14°C° 0 mm 1 mps 747 mmHg 58%
    09:00 +16°C° 0 mm 1 mps 747 mmHg 53%
    10:00 +20°C° 0 mm 1 mps 747 mmHg 47%
    11:00 +21°C° 0 mm 1 mps 746 mmHg 45%
    12:00 +23°C° 0 mm 1 mps 746 mmHg 42%
    13:00 +24°C° 0 mm 1 mps 746 mmHg 39%
    14:00 +23°C° 0 mm 1 mps 745 mmHg 43%
    15:00 +23°C° 0 mm 1 mps 745 mmHg 47%
    16:00 +23°C° 0 mm 1 mps 744 mmHg 50%
    17:00 +20°C° 0 mm 1 mps 744 mmHg 58%
    18:00 +16°C° 0 mm 1 mps 744 mmHg 65%
    19:00 +14°C° 0 mm 1 mps 744 mmHg 72%
    20:00 +13°C° 0 mm 1 mps 744 mmHg 74%
    21:00 +13°C° 0 mm 1 mps 744 mmHg 75%
    22:00 +13°C° 0 mm 1 mps 744 mmHg 76%
    23:00 +12°C° 0 mm 1 mps 743 mmHg 76%

    28 September, Friday

    Time Temperature Precipitation Wind Pressure Humidity
    00:00 +12°C° 0 mm 1 mps 743 mmHg 76%
    01:00 +12°C° 0 mm 1 mps 743 mmHg 76%
    02:00 +12°C° 0 mm 1 mps 742 mmHg 75%
    03:00 +11°C° 0 mm 1 mps 742 mmHg 74%
    04:00 +11°C° 0 mm 1 mps 742 mmHg 74%
    05:00 +12°C° 0 mm 1 mps 741 mmHg 72%
    06:00 +12°C° 0 mm 1 mps 741 mmHg 71%
    07:00 +12°C° 0 mm 1 mps 741 mmHg 70%
    08:00 +15°C° 0 mm 1 mps 741 mmHg 62%
    09:00 +19°C° 0 mm 1 mps 741 mmHg 54%
    10:00 +22°C° 0 mm 1 mps 741 mmHg 47%
    11:00 +23°C° 0 mm 1 mps 740 mmHg 45%
    12:00 +24°C° 0 mm 1 mps 740 mmHg 42%
    13:00 +25°C° 0 mm 1 mps 739 mmHg 40%
    14:00 +25°C° 0 mm 1 mps 739 mmHg 44%
    15:00 +24°C° 0 mm 1 mps 738 mmHg 48%
    16:00 +24°C° 0 mm 1 mps 737 mmHg 53%
    17:00 +21°C° 0 mm 1 mps 737 mmHg 59%
    18:00 +19°C° 0 mm 1 mps 737 mmHg 66%
    19:00 +16°C° 0 mm 1 mps 737 mmHg 73%
    20:00 +15°C° 0 mm 1 mps 737 mmHg 75%
    21:00 +15°C° 0 mm 1 mps 737 mmHg 76%
    22:00 +14°C° 0 mm 1 mps 737 mmHg 78%
    23:00 +14°C° 0 mm 1 mps 736 mmHg 78%
    Show more